Time,TemperatureF,DewpointF,PressureIn,WindDirection,WindDirectionDegrees,WindSpeedMPH,WindSpeedGustMPH,Humidity,HourlyPrecipIn,Conditions,Clouds,dailyrainin,SolarRadiationWatts/m^2,SoftwareType,DateUTC
2013-01-18 00:02:00,30.0,28.8,30.24,SSE,158,2.2,3.5,95,0.00,CLR,SCT,0.00,0.0,WeatherDisplay:10.37,2013-01-18 06:02:00,
2013-01-18 00:07:00,30.2,28.7,30.27,WSW,248,2.6,4.6,94,0.00,CLR,SCT,0.00,0.0,WeatherDisplay:10.37,2013-01-18 06:07:00,
2013-01-18 00:12:00,30.2,28.4,30.27,SSE,158,3.3,4.6,93,0.00,CLR,SCT,0.00,0.0,WeatherDisplay:10.37,2013-01-18 06:12:00,
2013-01-18 00:17:00,30.2,28.4,30.27,SSE,158,2.6,3.5,93,0.00,CLR,SCT,0.00,0.0,WeatherDisplay:10.37,2013-01-18 06:17:00,
2013-01-18 00:22:00,30.2,28.4,30.24,SSE,158,1.1,3.5,93,0.00,CLR,SCT,0.00,0.0,WeatherDisplay:10.37,2013-01-18 06:22:00,
2013-01-18 00:27:00,30.2,28.4,30.24,SSE,158,2.4,3.5,93,0.00,CLR,SCT,0.00,0.0,WeatherDisplay:10.37,2013-01-18 06:27:00,
2013-01-18 00:32:00,30.2,28.4,30.24,ESE,112,2.0,4.6,93,0.00,CLR,SCT,0.00,0.0,WeatherDisplay:10.37,2013-01-18 06:32:00,
2013-01-18 00:37:00,30.0,28.2,30.24,ESE,112,2.0,2.3,93,0.00,CLR,SCT,0.00,0.0,WeatherDisplay:10.37,2013-01-18 06:37:00,
2013-01-18 00:42:00,29.8,28.1,30.24,SSE,158,2.0,2.6,93,0.00,CLR,SCT,0.00,0.0,WeatherDisplay:10.37,2013-01-18 06:42:00,
2013-01-18 00:47:00,29.7,27.6,30.24,ESE,112,2.2,2.4,92,0.00,CLR,SCT,0.00,0.0,WeatherDisplay:10.37,2013-01-18 06:47:00,
2013-01-18 00:52:00,29.5,27.4,30.24,ESE,112,3.3,3.5,92,0.00,CLR,SCT,0.00,0.0,WeatherDisplay:10.37,2013-01-18 06:52:00,
2013-01-18 00:57:00,29.3,27.3,30.24,SSE,158,2.9,3.5,92,0.00,CLR,SCT,0.00,0.0,WeatherDisplay:10.37,2013-01-18 06:57:00,
2013-01-18 01:02:00,29.3,27.3,30.24,ESE,112,2.9,3.6,92,0.00,CLR,SCT,0.00,0.0,WeatherDisplay:10.37,2013-01-18 07:02:00,
2013-01-18 01:07:00,29.3,27.3,30.24,SSE,158,1.4,2.4,92,0.00,CLR,SCT,0.00,0.0,WeatherDisplay:10.37,2013-01-18 07:07:00,
2013-01-18 01:13:00,29.3,27.3,30.24,SE,135,2.6,2.9,92,0.00,CLR,SCT,0.00,0.0,WeatherDisplay:10.37,2013-01-18 07:13:00,
2013-01-18 01:18:00,29.3,27.5,30.24,ESE,112,2.9,3.5,93,0.00,CLR,SCT,0.00,0.0,WeatherDisplay:10.37,2013-01-18 07:18:00,
2013-01-18 01:23:00,29.5,27.7,30.21,ESE,112,2.4,3.5,93,0.00,CLR,SCT,0.00,0.0,WeatherDisplay:10.37,2013-01-18 07:23:00,
2013-01-18 01:28:00,29.5,27.7,30.21,ESE,112,2.6,3.5,93,0.00,CLR,SCT,0.00,0.0,WeatherDisplay:10.37,2013-01-18 07:28:00,
2013-01-18 01:33:00,29.5,27.7,30.21,ESE,112,2.0,2.3,93,0.00,CLR,SCT,0.00,0.0,WeatherDisplay:10.37,2013-01-18 07:33:00,
2013-01-18 01:38:00,29.5,27.7,30.21,SE,135,2.2,3.5,93,0.00,CLR,SCT,0.00,0.0,WeatherDisplay:10.37,2013-01-18 07:38:00,
2013-01-18 01:43:00,29.5,27.7,30.21,ESE,112,1.6,2.3,93,0.00,CLR,SCT,0.00,0.0,WeatherDisplay:10.37,2013-01-18 07:43:00,
2013-01-18 01:48:00,29.5,27.4,30.21,South,180,2.2,2.3,92,0.00,CLR,SCT,0.00,0.0,WeatherDisplay:10.37,2013-01-18 07:48:00,
2013-01-18 01:53:00,29.5,27.2,30.21,South,180,2.6,4.6,91,0.00,CLR,SCT,0.00,0.0,WeatherDisplay:10.37,2013-01-18 07:53:00,
2013-01-18 01:58:00,29.5,27.2,30.21,SSE,158,2.9,4.6,91,0.00,CLR,SCT,0.00,0.0,WeatherDisplay:10.37,2013-01-18 07:58:00,
2013-01-18 02:04:00,29.5,26.9,30.21,South,180,2.4,3.5,90,0.00,CLR,SCT,0.00,0.0,WeatherDisplay:10.37,2013-01-18 08:04:00,
2013-01-18 02:09:00,29.5,26.4,30.21,SSE,158,3.1,3.6,88,0.00,CLR,SCT,0.00,0.0,WeatherDisplay:10.37,2013-01-18 08:09:00,
2013-01-18 02:14:00,29.5,26.4,30.21,SSE,158,2.9,5.8,88,0.00,CLR,SCT,0.00,0.0,WeatherDisplay:10.37,2013-01-18 08:14:00,
2013-01-18 02:19:00,29.3,26.2,30.21,South,180,3.1,4.6,88,0.00,CLR,SCT,0.00,0.0,WeatherDisplay:10.37,2013-01-18 08:19:00,
2013-01-18 02:24:00,29.3,26.2,30.21,SSE,158,3.6,6.2,88,0.00,CLR,SCT,0.00,0.0,WeatherDisplay:10.37,2013-01-18 08:24:00,
2013-01-18 02:29:00,29.5,26.4,30.21,SSE,158,3.1,5.8,88,0.00,CLR,SCT,0.00,0.0,WeatherDisplay:10.37,2013-01-18 08:29:00,
2013-01-18 02:34:00,29.5,26.4,30.21,ESE,112,3.8,6.9,88,0.00,CLR,SCT,0.00,0.0,WeatherDisplay:10.37,2013-01-18 08:34:00,
2013-01-18 02:39:00,29.7,26.3,30.18,SSE,158,4.0,5.8,87,0.00,CLR,SCT,0.00,0.0,WeatherDisplay:10.37,2013-01-18 08:39:00,
2013-01-18 02:44:00,29.8,26.2,30.18,SSE,158,5.4,8.1,86,0.00,CLR,SCT,0.00,0.0,WeatherDisplay:10.37,2013-01-18 08:44:00,
2013-01-18 02:49:00,30.0,26.1,30.18,SSE,158,3.8,5.8,85,0.00,CLR,SCT,0.00,0.0,WeatherDisplay:10.37,2013-01-18 08:49:00,
2013-01-18 02:54:00,30.0,26.1,30.18,SSE,158,4.9,5.9,85,0.00,CLR,SCT,0.00,0.0,WeatherDisplay:10.37,2013-01-18 08:54:00,
2013-01-18 02:59:00,30.0,25.8,30.18,South,180,4.5,5.8,84,0.00,CLR,SCT,0.00,0.0,WeatherDisplay:10.37,2013-01-18 08:59:00,
2013-01-18 03:04:00,30.0,25.8,30.18,SSE,158,4.3,5.8,84,0.00,CLR,SCT,0.00,0.0,WeatherDisplay:10.37,2013-01-18 09:04:00,
2013-01-18 03:09:00,30.2,25.7,30.18,SSW,202,5.6,6.2,83,0.00,CLR,SCT,0.00,0.0,WeatherDisplay:10.37,2013-01-18 09:09:00,
2013-01-18 03:14:00,30.2,25.1,30.18,WSW,248,3.6,5.8,81,0.00,CLR,SCT,0.00,0.0,WeatherDisplay:10.37,2013-01-18 09:14:00,
2013-01-18 03:20:00,30.2,24.8,30.18,SSE,158,4.5,5.8,80,0.00,CLR,SCT,0.00,0.0,WeatherDisplay:10.37,2013-01-18 09:20:00,
2013-01-18 03:25:00,30.2,24.5,30.18,SSE,158,4.0,4.6,79,0.00,CLR,SCT,0.00,0.0,WeatherDisplay:10.37,2013-01-18 09:25:00,
2013-01-18 03:30:00,30.2,24.5,30.18,SSW,202,4.7,5.8,79,0.00,CLR,SCT,0.00,0.0,WeatherDisplay:10.37,2013-01-18 09:30:00,
2013-01-18 03:35:00,30.4,24.0,30.18,SSW,202,4.3,6.9,77,0.00,CLR,SCT,0.00,0.0,WeatherDisplay:10.37,2013-01-18 09:35:00,
2013-01-18 03:40:00,30.9,24.6,30.18,SSW,202,4.0,6.9,77,0.00,CLR,SCT,0.00,0.0,WeatherDisplay:10.37,2013-01-18 09:40:00,
2013-01-18 03:45:00,31.6,24.9,30.18,South,180,4.3,5.8,76,0.00,CLR,SCT,0.00,0.0,WeatherDisplay:10.37,2013-01-18 09:45:00,
2013-01-18 03:50:00,32.4,24.7,30.18,SSW,202,4.5,5.9,73,0.00,CLR,SCT,0.00,0.0,WeatherDisplay:10.37,2013-01-18 09:50:00,
2013-01-18 03:55:00,32.9,24.2,30.15,SW,225,4.5,5.8,70,0.00,CLR,SCT,0.00,0.0,WeatherDisplay:10.37,2013-01-18 09:55:00,
2013-01-18 04:00:00,33.6,23.1,30.15,SSW,202,6.2,8.7,65,0.00,CLR,SCT,0.00,0.0,WeatherDisplay:10.37,2013-01-18 10:00:00,
2013-01-18 04:05:00,34.0,22.3,30.15,SSW,202,5.6,8.5,62,0.00,CLR,SCT,0.00,0.0,WeatherDisplay:10.37,2013-01-18 10:05:00,
2013-01-18 04:10:00,34.3,21.9,30.12,SSW,202,7.1,10.4,60,0.00,CLR,SCT,0.00,0.0,WeatherDisplay:10.37,2013-01-18 10:10:00,
2013-01-18 04:15:00,34.3,21.9,30.12,SSW,202,7.1,10.4,60,0.00,CLR,SCT,0.00,0.0,WeatherDisplay:10.37,2013-01-18 10:15:00,
2013-01-18 04:20:00,34.3,21.5,30.12,SSW,202,5.4,8.1,59,0.00,CLR,SCT,0.00,0.0,WeatherDisplay:10.37,2013-01-18 10:20:00,
2013-01-18 04:25:00,34.9,21.6,30.12,SSW,202,7.4,10.4,58,0.00,CLR,SCT,0.00,0.0,WeatherDisplay:10.37,2013-01-18 10:25:00,
2013-01-18 04:31:00,35.1,21.3,30.12,SSW,202,7.4,8.1,57,0.00,CLR,SCT,0.00,0.0,WeatherDisplay:10.37,2013-01-18 10:31:00,
2013-01-18 04:36:00,34.9,21.2,30.12,SSW,202,5.6,6.9,57,0.00,CLR,SCT,0.00,0.0,WeatherDisplay:10.37,2013-01-18 10:36:00,
2013-01-18 04:41:00,35.1,20.9,30.12,SSW,202,5.9,9.2,56,0.00,CLR,SCT,0.00,0.0,WeatherDisplay:10.37,2013-01-18 10:41:00,
2013-01-18 04:46:00,35.2,21.1,30.12,South,180,5.4,8.5,56,0.00,CLR,SCT,0.00,0.0,WeatherDisplay:10.37,2013-01-18 10:46:00,
2013-01-18 04:51:00,35.1,20.5,30.12,SW,225,6.2,11.5,55,0.00,CLR,SCT,0.00,0.0,WeatherDisplay:10.37,2013-01-18 10:51:00,
2013-01-18 04:56:00,35.2,20.7,30.12,WSW,248,7.1,9.2,55,0.00,CLR,SCT,0.00,0.0,WeatherDisplay:10.37,2013-01-18 10:56:00,
2013-01-18 05:01:00,34.9,20.3,30.12,SSW,202,4.7,5.8,55,0.00,CLR,SCT,0.00,0.0,WeatherDisplay:10.37,2013-01-18 11:01:00,
2013-01-18 05:07:00,35.1,20.5,30.12,SSW,202,6.0,8.1,55,0.00,CLR,SCT,0.00,0.0,WeatherDisplay:10.37,2013-01-18 11:07:00,
2013-01-18 05:12:00,34.9,20.3,30.12,WSW,248,5.6,6.9,55,0.00,CLR,SCT,0.00,0.0,WeatherDisplay:10.37,2013-01-18 11:12:00,
2013-01-18 05:17:00,35.2,20.2,30.12,SSW,202,6.7,8.1,54,0.00,CLR,SCT,0.00,0.0,WeatherDisplay:10.37,2013-01-18 11:17:00,
2013-01-18 05:22:00,35.1,20.5,30.09,WSW,248,6.0,6.4,55,0.00,CLR,SCT,0.00,0.0,WeatherDisplay:10.37,2013-01-18 11:22:00,
2013-01-18 05:27:00,34.7,20.2,30.09,SSW,202,5.9,8.1,55,0.00,CLR,SCT,0.00,0.0,WeatherDisplay:10.37,2013-01-18 11:27:00,
2013-01-18 05:32:00,34.7,20.2,30.09,SSW,202,5.6,6.9,55,0.00,CLR,SCT,0.00,0.0,WeatherDisplay:10.37,2013-01-18 11:32:00,
2013-01-18 05:37:00,34.9,20.3,30.09,WSW,248,5.4,6.9,55,0.00,CLR,SCT,0.00,0.0,WeatherDisplay:10.37,2013-01-18 11:37:00,
2013-01-18 05:42:00,34.7,20.2,30.09,SSW,202,4.9,6.9,55,0.00,CLR,SCT,0.00,0.0,WeatherDisplay:10.37,2013-01-18 11:42:00,
2013-01-18 05:47:00,34.9,20.3,30.09,SSW,202,4.7,5.8,55,0.00,CLR,SCT,0.00,0.0,WeatherDisplay:10.37,2013-01-18 11:47:00,
2013-01-18 05:52:00,34.9,20.3,30.06,WSW,248,5.4,8.1,55,0.00,CLR,SCT,0.00,0.0,WeatherDisplay:10.37,2013-01-18 11:52:00,
2013-01-18 05:57:00,35.1,20.5,30.06,SSW,202,5.9,7.8,55,0.00,CLR,SCT,0.00,0.0,WeatherDisplay:10.37,2013-01-18 11:57:00,
2013-01-18 06:02:00,35.2,20.2,30.06,SSE,158,4.3,6.9,54,0.00,CLR,SCT,0.00,0.0,WeatherDisplay:10.37,2013-01-18 12:02:00,
2013-01-18 06:07:00,35.1,20.5,30.06,SSW,202,5.9,9.2,55,0.00,CLR,SCT,0.00,0.0,WeatherDisplay:10.37,2013-01-18 12:07:00,
2013-01-18 06:12:00,35.1,20.5,30.06,SSE,158,5.4,8.5,55,0.00,CLR,SCT,0.00,0.0,WeatherDisplay:10.37,2013-01-18 12:12:00,
2013-01-18 06:17:00,35.4,20.8,30.06,SSW,202,6.2,11.5,55,0.00,CLR,SCT,0.00,0.0,WeatherDisplay:10.37,2013-01-18 12:17:00,
2013-01-18 06:22:00,35.1,20.5,30.06,WSW,248,4.7,8.5,55,0.00,CLR,SCT,0.00,0.0,WeatherDisplay:10.37,2013-01-18 12:22:00,
2013-01-18 06:27:00,35.4,20.8,30.06,South,180,5.6,9.2,55,0.00,CLR,SCT,0.00,0.0,WeatherDisplay:10.37,2013-01-18 12:27:00,
2013-01-18 06:33:00,35.1,20.5,30.06,SSW,202,4.9,7.4,55,0.00,CLR,SCT,0.00,0.0,WeatherDisplay:10.37,2013-01-18 12:33:00,
2013-01-18 06:38:00,35.2,20.7,30.06,SSW,202,4.5,8.1,55,0.00,CLR,SCT,0.00,0.0,WeatherDisplay:10.37,2013-01-18 12:38:00,
2013-01-18 06:43:00,35.2,21.1,30.06,SSW,202,6.0,8.1,56,0.00,CLR,SCT,0.00,0.0,WeatherDisplay:10.37,2013-01-18 12:43:00,
2013-01-18 06:48:00,35.2,21.1,30.06,SSW,202,6.7,9.7,56,0.00,CLR,SCT,0.00,0.0,WeatherDisplay:10.37,2013-01-18 12:48:00,
2013-01-18 06:53:00,35.4,21.3,30.00,SSW,202,6.7,12.7,56,0.00,CLR,SCT,0.00,0.0,WeatherDisplay:10.37,2013-01-18 12:53:00,
2013-01-18 06:58:00,35.6,21.0,30.00,SSW,202,7.4,9.2,55,0.00,CLR,SCT,0.00,0.0,WeatherDisplay:10.37,2013-01-18 12:58:00,
2013-01-18 07:03:00,35.8,21.2,30.00,SSE,158,6.2,9.2,55,0.00,CLR,SCT,0.00,0.0,WeatherDisplay:10.37,2013-01-18 13:03:00,
2013-01-18 07:08:00,35.8,21.2,30.03,WSW,248,5.6,9.2,55,0.00,CLR,SCT,0.00,0.0,WeatherDisplay:10.37,2013-01-18 13:08:00,
2013-01-18 07:13:00,36.0,21.3,30.03,SW,225,6.4,8.1,55,0.00,CLR,SCT,0.00,0.0,WeatherDisplay:10.37,2013-01-18 13:13:00,
2013-01-18 07:18:00,36.0,21.3,30.03,SW,225,6.7,9.2,55,0.00,OVC,SCT,0.00,0.0,WeatherDisplay:10.37,2013-01-18 13:18:00,
2013-01-18 07:23:00,35.8,21.2,30.03,SSW,202,6.2,9.2,55,0.00,OVC,SCT,0.00,0.0,WeatherDisplay:10.37,2013-01-18 13:23:00,
2013-01-18 07:28:00,35.8,21.2,30.03,WSW,248,6.7,11.5,55,0.00,OVC,SCT,0.00,0.0,WeatherDisplay:10.37,2013-01-18 13:28:00,
2013-01-18 07:33:00,35.6,21.0,30.03,SSW,202,4.9,5.8,55,0.00,OVC,SCT,0.00,0.0,WeatherDisplay:10.37,2013-01-18 13:33:00,
2013-01-18 07:38:00,35.6,21.0,30.03,SSW,202,6.7,8.1,55,0.00,OVC,SCT,0.00,0.0,WeatherDisplay:10.37,2013-01-18 13:38:00,
2013-01-18 07:43:00,35.6,21.0,30.03,WSW,248,4.9,6.4,55,0.00,OVC,SCT,0.00,0.0,WeatherDisplay:10.37,2013-01-18 13:43:00,
2013-01-18 07:48:00,35.4,21.3,30.03,SSW,202,5.6,8.1,56,0.00,OVC,SCT,0.00,0.0,WeatherDisplay:10.37,2013-01-18 13:48:00,
2013-01-18 07:54:00,35.4,21.3,30.03,SSW,202,4.9,8.1,56,0.00,OVC,SCT,0.00,0.0,WeatherDisplay:10.37,2013-01-18 13:54:00,
2013-01-18 07:59:00,35.2,21.1,30.03,WSW,248,4.5,8.1,56,0.00,OVC,SCT,0.00,0.0,WeatherDisplay:10.37,2013-01-18 13:59:00,
2013-01-18 08:04:00,35.4,21.7,30.03,WSW,248,6.0,8.1,57,0.00,OVC,SCT,0.00,0.0,WeatherDisplay:10.37,2013-01-18 14:04:00,
2013-01-18 08:09:00,35.6,21.4,30.03,WSW,248,4.3,5.8,56,0.00,OVC,SCT,0.00,0.0,WeatherDisplay:10.37,2013-01-18 14:09:00,
2013-01-18 08:14:00,35.6,21.4,30.03,WSW,248,4.7,7.4,56,0.00,OVC,SCT,0.00,0.0,WeatherDisplay:10.37,2013-01-18 14:14:00,
2013-01-18 08:19:00,36.0,21.8,30.03,SSW,202,6.4,10.4,56,0.00,OVC,SCT,0.00,0.0,WeatherDisplay:10.37,2013-01-18 14:19:00,
2013-01-18 08:24:00,36.1,21.9,30.03,WSW,248,6.2,8.5,56,0.00,OVC,SCT,0.00,0.0,WeatherDisplay:10.37,2013-01-18 14:24:00,
2013-01-18 08:29:00,36.3,22.1,30.03,WSW,248,7.6,10.4,56,0.00,OVC,SCT,0.00,0.0,WeatherDisplay:10.37,2013-01-18 14:29:00,
2013-01-18 08:34:00,36.5,22.3,30.03,WSW,248,7.4,10.4,56,0.00,OVC,SCT,0.00,0.0,WeatherDisplay:10.37,2013-01-18 14:34:00,
2013-01-18 08:39:00,36.9,22.2,30.03,WSW,248,6.0,8.1,55,0.00,OVC,SCT,0.00,0.0,WeatherDisplay:10.37,2013-01-18 14:39:00,
2013-01-18 08:44:00,37.0,21.9,30.03,WNW,292,7.1,10.4,54,0.00,OVC,SCT,0.00,0.0,WeatherDisplay:10.37,2013-01-18 14:44:00,
2013-01-18 08:49:00,37.0,22.8,30.03,WSW,248,5.9,6.9,56,0.00,OVC,SCT,0.00,0.0,WeatherDisplay:10.37,2013-01-18 14:49:00,
2013-01-18 08:54:00,37.2,22.5,30.06,SSW,202,6.4,8.1,55,0.00,OVC,SCT,0.00,0.0,WeatherDisplay:10.37,2013-01-18 14:54:00,
2013-01-18 08:59:00,37.6,22.4,30.06,SW,225,7.4,8.1,54,0.00,OVC,SCT,0.00,0.0,WeatherDisplay:10.37,2013-01-18 14:59:00,
2013-01-18 09:04:00,37.8,22.6,30.06,SW,225,8.7,10.4,54,0.00,OVC,SCT,0.00,0.0,WeatherDisplay:10.37,2013-01-18 15:04:00,
2013-01-18 09:10:00,37.9,22.3,30.03,SW,225,8.1,10.4,53,0.00,OVC,SCT,0.00,0.0,WeatherDisplay:10.37,2013-01-18 15:10:00,
2013-01-18 09:15:00,38.0,22.4,30.03,SW,234,9.0,13.0,53,0.00,OVC,SCT,0.00,0.0,WeatherDisplay:10.37,2013-01-18 15:15:00,
2013-01-18 09:20:00,38.1,22.5,30.03,SW,225,7.6,11.5,53,0.00,OVC,SCT,0.00,0.0,WeatherDisplay:10.37,2013-01-18 15:20:00,
2013-01-18 09:25:00,38.3,22.6,30.03,WSW,248,7.4,9.2,53,0.00,OVC,SCT,0.00,0.0,WeatherDisplay:10.37,2013-01-18 15:25:00,
2013-01-18 09:30:00,38.5,22.8,30.03,SSW,202,8.5,10.7,53,0.00,OVC,SCT,0.00,0.0,WeatherDisplay:10.37,2013-01-18 15:30:00,
2013-01-18 09:35:00,38.7,23.0,30.03,WSW,248,10.2,12.7,53,0.00,OVC,SCT,0.00,0.0,WeatherDisplay:10.37,2013-01-18 15:35:00,
2013-01-18 09:40:00,38.8,22.7,30.03,SSW,202,11.8,15.0,52,0.00,OVC,SCT,0.00,0.0,WeatherDisplay:10.37,2013-01-18 15:40:00,
2013-01-18 09:45:00,39.0,22.9,30.03,West,270,10.7,14.5,52,0.00,OVC,SCT,0.00,0.0,WeatherDisplay:10.37,2013-01-18 15:45:00,
2013-01-18 09:51:00,39.2,22.6,30.03,WSW,248,10.7,13.8,51,0.00,OVC,SCT,0.00,0.0,WeatherDisplay:10.37,2013-01-18 15:51:00,
2013-01-18 09:56:00,39.4,23.2,30.03,SSW,202,8.5,12.7,52,0.00,OVC,SCT,0.00,0.0,WeatherDisplay:10.37,2013-01-18 15:56:00,
2013-01-18 10:01:00,39.7,23.1,30.03,SSW,202,9.7,15.0,51,0.00,OVC,SCT,0.00,0.0,WeatherDisplay:10.37,2013-01-18 16:01:00,
2013-01-18 10:06:00,39.9,23.2,30.03,WSW,248,10.2,16.1,51,0.00,OVC,SCT,0.00,0.0,WeatherDisplay:10.37,2013-01-18 16:06:00,
2013-01-18 10:11:00,39.9,23.2,30.03,WSW,248,11.2,12.7,51,0.00,OVC,SCT,0.00,0.0,WeatherDisplay:10.37,2013-01-18 16:11:00,
2013-01-18 10:16:00,40.5,23.3,30.03,South,180,10.7,13.8,50,0.00,OVC,SCT,0.00,0.0,WeatherDisplay:10.37,2013-01-18 16:16:00,
2013-01-18 10:21:00,40.8,23.6,30.03,WSW,248,10.5,12.7,50,0.00,OVC,SCT,0.00,0.0,WeatherDisplay:10.37,2013-01-18 16:21:00,
2013-01-18 10:26:00,41.0,23.3,30.03,WSW,248,8.5,10.5,49,0.00,OVC,SCT,0.00,0.0,WeatherDisplay:10.37,2013-01-18 16:26:00,
2013-01-18 10:31:00,41.4,23.6,30.03,SW,225,9.4,10.4,49,0.00,OVC,SCT,0.00,0.0,WeatherDisplay:10.37,2013-01-18 16:31:00,
2013-01-18 10:36:00,41.5,23.8,30.00,WSW,248,10.5,15.2,49,0.00,OVC,SCT,0.00,0.0,WeatherDisplay:10.37,2013-01-18 16:36:00,
2013-01-18 10:41:00,41.9,24.1,30.00,WSW,248,7.1,14.7,49,0.00,OVC,SCT,0.00,0.0,WeatherDisplay:10.37,2013-01-18 16:41:00,
2013-01-18 10:46:00,42.3,23.9,30.00,WSW,248,9.0,10.7,48,0.00,OVC,SCT,0.00,0.0,WeatherDisplay:10.37,2013-01-18 16:46:00,
2013-01-18 10:52:00,42.3,23.4,30.00,WSW,248,13.7,13.8,47,0.00,OVC,SCT,0.00,0.0,WeatherDisplay:10.37,2013-01-18 16:52:00,
2013-01-18 10:57:00,42.6,23.8,30.00,SW,225,11.2,15.0,47,0.00,OVC,SCT,0.00,0.0,WeatherDisplay:10.37,2013-01-18 16:57:00,
2013-01-18 11:02:00,42.8,23.9,30.00,West,270,9.4,17.3,47,0.00,OVC,SCT,0.00,0.0,WeatherDisplay:10.37,2013-01-18 17:02:00,
2013-01-18 11:07:00,43.3,23.9,30.00,WSW,248,8.7,12.8,46,0.00,OVC,SCT,0.00,0.0,WeatherDisplay:10.37,2013-01-18 17:07:00,
2013-01-18 11:12:00,43.3,23.4,30.00,WSW,248,13.5,16.1,45,0.00,OVC,SCT,0.00,0.0,WeatherDisplay:10.37,2013-01-18 17:12:00,
2013-01-18 11:17:00,43.3,22.9,30.00,West,270,13.8,17.3,44,0.00,OVC,SCT,0.00,0.0,WeatherDisplay:10.37,2013-01-18 17:17:00,
2013-01-18 11:22:00,43.5,23.0,30.00,WSW,248,12.1,13.8,44,0.00,OVC,SCT,0.00,0.0,WeatherDisplay:10.37,2013-01-18 17:22:00,
2013-01-18 11:27:00,43.9,23.4,30.00,SW,225,10.5,13.8,44,0.00,OVC,SCT,0.00,0.0,WeatherDisplay:10.37,2013-01-18 17:27:00,
2013-01-18 11:32:00,44.4,23.8,30.00,WSW,248,9.0,10.4,44,0.00,OVC,SCT,0.00,0.0,WeatherDisplay:10.37,2013-01-18 17:32:00,
2013-01-18 11:37:00,44.8,23.6,30.00,WSW,248,10.0,11.5,43,0.00,OVC,SCT,0.00,0.0,WeatherDisplay:10.37,2013-01-18 17:37:00,
2013-01-18 11:42:00,45.3,24.1,30.00,WSW,248,10.0,12.7,43,0.00,OVC,SCT,0.00,0.0,WeatherDisplay:10.37,2013-01-18 17:42:00,
2013-01-18 11:47:00,45.7,24.4,30.00,WSW,248,8.1,10.4,43,0.00,OVC,SCT,0.00,0.0,WeatherDisplay:10.37,2013-01-18 17:47:00,
2013-01-18 11:52:00,45.9,24.0,30.00,SW,225,9.4,10.4,42,0.00,OVC,SCT,0.00,0.0,WeatherDisplay:10.37,2013-01-18 17:52:00,
2013-01-18 11:57:00,46.4,24.5,30.00,WSW,248,6.0,10.4,42,0.00,OVC,SCT,0.00,0.0,WeatherDisplay:10.37,2013-01-18 17:57:00,
2013-01-18 12:03:00,46.4,23.9,30.00,WSW,248,9.7,12.7,41,0.00,OVC,SCT,0.00,0.0,WeatherDisplay:10.37,2013-01-18 18:03:00,
2013-01-18 12:08:00,46.4,23.4,29.97,West,270,9.2,13.8,40,0.00,OVC,SCT,0.00,0.0,WeatherDisplay:10.37,2013-01-18 18:08:00,
2013-01-18 12:13:00,46.6,23.5,29.97,SW,225,11.2,17.5,40,0.00,OVC,SCT,0.00,0.0,WeatherDisplay:10.37,2013-01-18 18:13:00,
2013-01-18 12:18:00,46.4,23.4,29.97,WSW,248,10.9,15.0,40,0.00,OVC,SCT,0.00,0.0,WeatherDisplay:10.37,2013-01-18 18:18:00,
2013-01-18 12:23:00,46.6,24.1,29.97,West,270,10.2,12.7,41,0.00,OVC,SCT,0.00,0.0,WeatherDisplay:10.37,2013-01-18 18:23:00,
2013-01-18 12:28:00,46.9,24.4,29.97,WSW,248,10.0,12.8,41,0.00,OVC,SCT,0.00,0.0,WeatherDisplay:10.37,2013-01-18 18:28:00,
2013-01-18 12:33:00,46.9,23.8,29.97,WSW,248,10.2,12.7,40,0.00,OVC,SCT,0.00,0.0,WeatherDisplay:10.37,2013-01-18 18:33:00,
2013-01-18 12:38:00,47.3,24.8,29.94,WSW,248,10.5,12.7,41,0.00,OVC,SCT,0.00,0.0,WeatherDisplay:10.37,2013-01-18 18:38:00,
2013-01-18 12:43:00,47.1,24.0,29.94,WSW,248,13.0,13.0,40,0.00,OVC,SCT,0.00,0.0,WeatherDisplay:10.37,2013-01-18 18:43:00,
2013-01-18 12:48:00,47.1,23.4,29.94,WSW,248,13.2,16.1,39,0.00,OVC,SCT,0.00,0.0,WeatherDisplay:10.37,2013-01-18 18:48:00,
2013-01-18 12:53:00,47.3,23.6,29.94,WSW,248,11.4,14.0,39,0.00,OVC,SCT,0.00,0.0,WeatherDisplay:10.37,2013-01-18 18:53:00,
2013-01-18 12:58:00,47.5,23.7,29.94,SSW,202,9.8,12.3,39,0.00,OVC,SCT,0.00,100.0,WeatherDisplay:10.37,2013-01-18 18:58:00,
2013-01-18 13:03:00,47.7,24.5,29.94,WSW,248,9.2,14.5,40,0.00,OVC,SCT,0.00,100.0,WeatherDisplay:10.37,2013-01-18 19:03:00,
2013-01-18 13:08:00,48.4,24.5,29.94,West,270,10.2,13.2,39,0.00,OVC,SCT,0.00,0.0,WeatherDisplay:10.37,2013-01-18 19:08:00,
2013-01-18 13:13:00,48.4,24.5,29.94,WSW,248,9.0,11.5,39,0.00,OVC,SCT,0.00,0.0,WeatherDisplay:10.37,2013-01-18 19:13:00,
2013-01-18 13:18:00,47.8,24.0,29.94,WSW,248,11.8,13.0,39,0.00,OVC,SCT,0.00,0.0,WeatherDisplay:10.37,2013-01-18 19:18:00,
2013-01-18 13:23:00,47.3,22.9,29.94,WSW,248,14.0,16.1,38,0.00,OVC,SCT,0.00,0.0,WeatherDisplay:10.37,2013-01-18 19:23:00,
2013-01-18 13:29:00,47.1,23.4,29.94,WSW,248,10.5,12.7,39,0.00,OVC,SCT,0.00,0.0,WeatherDisplay:10.37,2013-01-18 19:29:00,
2013-01-18 13:34:00,47.5,23.7,29.94,WSW,248,11.4,15.0,39,0.00,OVC,SCT,0.00,0.0,WeatherDisplay:10.37,2013-01-18 19:34:00,
2013-01-18 13:39:00,48.4,23.9,29.94,WSW,248,8.7,12.3,38,0.00,OVC,SCT,0.00,0.0,WeatherDisplay:10.37,2013-01-18 19:39:00,
2013-01-18 13:44:00,49.1,24.6,29.94,WSW,248,8.7,10.4,38,0.00,OVC,SCT,0.00,0.0,WeatherDisplay:10.37,2013-01-18 19:44:00,
2013-01-18 13:49:00,48.9,24.4,29.94,WSW,248,10.0,13.8,38,0.00,OVC,SCT,0.00,0.0,WeatherDisplay:10.37,2013-01-18 19:49:00,
2013-01-18 13:54:00,48.9,24.4,29.94,WSW,248,9.2,12.7,38,0.00,OVC,SCT,0.00,0.0,WeatherDisplay:10.37,2013-01-18 19:54:00,
2013-01-18 13:59:00,49.1,24.6,29.94,WSW,248,10.9,17.3,38,0.00,OVC,SCT,0.00,0.0,WeatherDisplay:10.37,2013-01-18 19:59:00,
2013-01-18 14:04:00,49.3,24.1,29.94,WSW,248,11.4,13.8,37,0.00,OVC,SCT,0.00,0.0,WeatherDisplay:10.37,2013-01-18 20:04:00,
2013-01-18 14:09:00,50.0,24.7,29.91,WSW,248,9.8,14.7,37,0.00,OVC,SCT,0.00,0.0,WeatherDisplay:10.37,2013-01-18 20:09:00,
2013-01-18 14:14:00,49.6,24.4,29.91,WSW,248,10.9,13.8,37,0.00,OVC,SCT,0.00,0.0,WeatherDisplay:10.37,2013-01-18 20:14:00,
2013-01-18 14:19:00,50.0,24.7,29.91,WSW,248,10.7,15.0,37,0.00,OVC,SCT,0.00,0.0,WeatherDisplay:10.37,2013-01-18 20:19:00,
2013-01-18 14:24:00,49.8,24.6,29.94,SSW,202,12.1,16.1,37,0.00,OVC,SCT,0.00,0.0,WeatherDisplay:10.37,2013-01-18 20:24:00,
2013-01-18 14:30:00,50.0,24.7,29.94,WSW,248,9.2,12.7,37,0.00,OVC,SCT,0.00,0.0,WeatherDisplay:10.37,2013-01-18 20:30:00,
2013-01-18 14:35:00,50.4,25.0,29.94,WSW,248,6.4,10.4,37,0.00,OVC,SCT,0.00,0.0,WeatherDisplay:10.37,2013-01-18 20:35:00,
2013-01-18 14:40:00,50.4,25.0,29.94,WNW,292,8.5,10.4,37,0.00,OVC,SCT,0.00,0.0,WeatherDisplay:10.37,2013-01-18 20:40:00,
2013-01-18 14:45:00,50.5,25.2,29.94,WSW,248,9.0,10.4,37,0.00,OVC,SCT,0.00,0.0,WeatherDisplay:10.37,2013-01-18 20:45:00,
2013-01-18 14:50:00,50.5,24.5,29.94,WSW,248,9.4,12.7,36,0.00,OVC,SCT,0.00,0.0,WeatherDisplay:10.37,2013-01-18 20:50:00,
2013-01-18 14:55:00,50.5,24.5,29.94,West,270,6.4,9.7,36,0.00,OVC,SCT,0.00,0.0,WeatherDisplay:10.37,2013-01-18 20:55:00,
2013-01-18 15:00:00,50.4,25.0,29.94,WSW,248,8.1,10.4,37,0.00,OVC,SCT,0.00,0.0,WeatherDisplay:10.37,2013-01-18 21:00:00,
2013-01-18 15:05:00,50.4,25.0,29.94,NNW,338,7.6,10.4,37,0.00,OVC,SCT,0.00,0.0,WeatherDisplay:10.37,2013-01-18 21:05:00,
2013-01-18 15:10:00,49.8,24.6,29.91,WSW,248,10.5,11.5,37,0.00,OVC,SCT,0.00,0.0,WeatherDisplay:10.37,2013-01-18 21:10:00,
2013-01-18 15:15:00,50.0,24.7,29.91,WSW,248,7.8,10.4,37,0.00,OVC,SCT,0.00,0.0,WeatherDisplay:10.37,2013-01-18 21:15:00,
2013-01-18 15:20:00,50.2,24.9,29.91,West,270,7.8,9.2,37,0.00,OVC,SCT,0.00,0.0,WeatherDisplay:10.37,2013-01-18 21:20:00,
2013-01-18 15:25:00,50.0,24.7,29.88,WSW,248,8.1,10.5,37,0.00,OVC,SCT,0.00,0.0,WeatherDisplay:10.37,2013-01-18 21:25:00,
2013-01-18 15:30:00,50.0,24.7,29.88,WSW,248,6.0,8.7,37,0.00,OVC,SCT,0.00,0.0,WeatherDisplay:10.37,2013-01-18 21:30:00,
2013-01-18 15:35:00,50.0,24.7,29.88,South,180,6.2,11.5,37,0.00,OVC,SCT,0.00,0.0,WeatherDisplay:10.37,2013-01-18 21:35:00,
2013-01-18 15:41:00,50.0,24.7,29.88,WSW,248,6.2,9.2,37,0.00,OVC,SCT,0.00,0.0,WeatherDisplay:10.37,2013-01-18 21:41:00,
2013-01-18 15:46:00,49.8,25.2,29.88,WSW,248,8.1,9.2,38,0.00,OVC,SCT,0.00,0.0,WeatherDisplay:10.37,2013-01-18 21:46:00,
2013-01-18 15:51:00,49.8,25.2,29.88,West,270,7.8,8.5,38,0.00,OVC,SCT,0.00,0.0,WeatherDisplay:10.37,2013-01-18 21:51:00,
2013-01-18 15:56:00,50.0,24.7,29.88,NNW,338,6.9,8.1,37,0.00,OVC,SCT,0.00,0.0,WeatherDisplay:10.37,2013-01-18 21:56:00,
2013-01-18 16:01:00,49.8,25.2,29.88,WSW,248,6.7,10.4,38,0.00,OVC,SCT,0.00,0.0,WeatherDisplay:10.37,2013-01-18 22:01:00,
2013-01-18 16:07:00,49.6,25.0,29.88,WSW,248,6.2,7.6,38,0.00,OVC,SCT,0.00,0.0,WeatherDisplay:10.37,2013-01-18 22:07:00,
2013-01-18 16:12:00,49.6,25.0,29.88,WSW,248,6.7,8.7,38,0.00,OVC,SCT,0.00,0.0,WeatherDisplay:10.37,2013-01-18 22:12:00,
2013-01-18 16:17:00,49.6,25.0,29.88,WSW,248,4.3,6.0,38,0.00,OVC,SCT,0.00,0.0,WeatherDisplay:10.37,2013-01-18 22:17:00,
2013-01-18 16:22:00,49.5,24.9,29.88,WNW,292,4.0,5.8,38,0.00,OVC,SCT,0.00,0.0,WeatherDisplay:10.37,2013-01-18 22:22:00,
2013-01-18 16:27:00,49.1,24.6,29.88,WSW,248,4.7,8.5,38,0.00,OVC,SCT,0.00,0.0,WeatherDisplay:10.37,2013-01-18 22:27:00,
2013-01-18 16:32:00,49.1,24.6,29.88,West,270,4.3,5.8,38,0.00,OVC,SCT,0.00,0.0,WeatherDisplay:10.37,2013-01-18 22:32:00,
2013-01-18 16:37:00,48.9,24.4,29.88,WNW,292,6.0,6.9,38,0.00,OVC,SCT,0.00,0.0,WeatherDisplay:10.37,2013-01-18 22:37:00,
2013-01-18 16:42:00,48.6,24.7,29.88,West,270,3.8,4.6,39,0.00,OVC,SCT,0.00,0.0,WeatherDisplay:10.37,2013-01-18 22:42:00,
2013-01-18 16:47:00,48.2,24.4,29.88,SSW,202,4.9,6.9,39,0.00,OVC,SCT,0.00,0.0,WeatherDisplay:10.37,2013-01-18 22:47:00,
2013-01-18 16:52:00,48.0,24.2,29.88,West,270,2.4,3.5,39,0.00,OVC,SCT,0.00,0.0,WeatherDisplay:10.37,2013-01-18 22:52:00,
2013-01-18 16:57:00,48.2,24.4,29.88,West,270,2.6,3.5,39,0.00,OVC,SCT,0.00,0.0,WeatherDisplay:10.37,2013-01-18 22:57:00,
2013-01-18 17:02:00,47.8,24.0,29.88,WSW,248,1.6,3.5,39,0.00,OVC,SCT,0.00,0.0,WeatherDisplay:10.37,2013-01-18 23:02:00,
2013-01-18 17:07:00,47.7,23.9,29.91,WSW,248,1.4,2.3,39,0.00,OVC,SCT,0.00,0.0,WeatherDisplay:10.37,2013-01-18 23:07:00,
2013-01-18 17:13:00,46.6,22.9,29.91,WSW,248,1.4,2.4,39,0.00,OVC,SCT,0.00,0.0,WeatherDisplay:10.37,2013-01-18 23:13:00,
2013-01-18 17:18:00,46.0,23.6,29.91,WSW,248,2.6,3.5,41,0.00,OVC,SCT,0.00,0.0,WeatherDisplay:10.37,2013-01-18 23:18:00,
2013-01-18 17:23:00,44.8,22.5,29.88,SSW,202,1.4,1.6,41,0.00,OVC,SCT,0.00,0.0,WeatherDisplay:10.37,2013-01-18 23:23:00,
2013-01-18 17:28:00,43.9,22.8,29.88,SW,225,3.3,4.6,43,0.00,OVC,SCT,0.00,0.0,WeatherDisplay:10.37,2013-01-18 23:28:00,
2013-01-18 17:34:00,43.7,23.7,29.88,WSW,248,3.8,5.8,45,0.00,OVC,SCT,0.00,0.0,WeatherDisplay:10.37,2013-01-18 23:34:00,
2013-01-18 17:39:00,43.7,23.7,29.88,WSW,248,3.3,5.8,45,0.00,OVC,SCT,0.00,0.0,WeatherDisplay:10.37,2013-01-18 23:39:00,
2013-01-18 17:44:00,43.3,23.4,29.88,WSW,248,1.1,2.3,45,0.00,OVC,SCT,0.00,0.0,WeatherDisplay:10.37,2013-01-18 23:44:00,
2013-01-18 17:49:00,42.4,23.1,29.88,WSW,248,0.0,1.1,46,0.00,OVC,SCT,0.00,0.0,WeatherDisplay:10.37,2013-01-18 23:49:00,
2013-01-18 17:54:00,42.1,23.3,29.91,SSW,202,0.9,2.3,47,0.00,OVC,SCT,0.00,0.0,WeatherDisplay:10.37,2013-01-18 23:54:00,
2013-01-18 17:59:00,42.3,24.4,29.91,West,270,3.8,3.8,49,0.00,CLR,SCT,0.00,0.0,WeatherDisplay:10.37,2013-01-18 23:59:00,
2013-01-18 18:04:00,42.1,24.3,29.91,WSW,248,3.3,3.8,49,0.00,CLR,SCT,0.00,0.0,WeatherDisplay:10.37,2013-01-19 00:04:00,
2013-01-18 18:09:00,42.3,24.4,29.91,WSW,248,4.7,6.9,49,0.00,CLR,SCT,0.00,0.0,WeatherDisplay:10.37,2013-01-19 00:09:00,
2013-01-18 18:14:00,42.3,24.4,29.91,West,270,4.5,6.9,49,0.00,CLR,SCT,0.00,0.0,WeatherDisplay:10.37,2013-01-19 00:14:00,
2013-01-18 18:19:00,42.4,24.6,29.91,WSW,248,5.9,5.9,49,0.00,CLR,SCT,0.00,0.0,WeatherDisplay:10.37,2013-01-19 00:19:00,
2013-01-18 18:24:00,43.0,24.1,29.88,WSW,248,6.4,9.2,47,0.00,CLR,SCT,0.00,0.0,WeatherDisplay:10.37,2013-01-19 00:24:00,
2013-01-18 18:29:00,43.3,23.9,29.88,West,270,6.7,8.1,46,0.00,CLR,SCT,0.00,0.0,WeatherDisplay:10.37,2013-01-19 00:29:00,
2013-01-18 18:34:00,43.7,23.7,29.88,SSW,202,7.6,9.2,45,0.00,CLR,SCT,0.00,0.0,WeatherDisplay:10.37,2013-01-19 00:34:00,
2013-01-18 18:39:00,44.1,23.5,29.88,SSW,202,9.0,10.4,44,0.00,CLR,SCT,0.00,0.0,WeatherDisplay:10.37,2013-01-19 00:39:00,
2013-01-18 18:44:00,44.1,23.5,29.88,West,270,7.8,9.2,44,0.00,CLR,SCT,0.00,0.0,WeatherDisplay:10.37,2013-01-19 00:44:00,
2013-01-18 18:49:00,44.1,23.5,29.88,WSW,248,8.5,11.4,44,0.00,CLR,SCT,0.00,0.0,WeatherDisplay:10.37,2013-01-19 00:49:00,
2013-01-18 18:54:00,43.9,23.4,29.91,WSW,248,9.2,11.5,44,0.00,CLR,SCT,0.00,0.0,WeatherDisplay:10.37,2013-01-19 00:54:00,
2013-01-18 18:59:00,43.7,23.2,29.91,West,270,6.7,9.2,44,0.00,CLR,SCT,0.00,0.0,WeatherDisplay:10.37,2013-01-19 00:59:00,
2013-01-18 19:04:00,43.7,23.2,29.91,WSW,248,8.1,9.2,44,0.00,CLR,SCT,0.00,0.0,WeatherDisplay:10.37,2013-01-19 01:04:00,
2013-01-18 19:09:00,43.5,23.0,29.91,West,270,7.4,11.5,44,0.00,CLR,SCT,0.00,0.0,WeatherDisplay:10.37,2013-01-19 01:09:00,
2013-01-18 19:15:00,43.3,22.9,29.91,WSW,255,7.0,13.0,44,0.00,CLR,SCT,0.00,0.0,WeatherDisplay:10.37,2013-01-19 01:15:00,
2013-01-18 19:20:00,43.5,23.0,29.91,WSW,248,7.4,11.5,44,0.00,CLR,SCT,0.00,0.0,WeatherDisplay:10.37,2013-01-19 01:20:00,
2013-01-18 19:25:00,43.5,23.0,29.91,West,270,7.4,9.2,44,0.00,CLR,SCT,0.00,0.0,WeatherDisplay:10.37,2013-01-19 01:25:00,
2013-01-18 19:30:00,43.0,23.1,29.91,WSW,248,7.4,10.4,45,0.00,CLR,SCT,0.00,0.0,WeatherDisplay:10.37,2013-01-19 01:30:00,
2013-01-18 19:35:00,43.3,22.9,29.91,WSW,248,8.1,12.7,44,0.00,CLR,SCT,0.00,0.0,WeatherDisplay:10.37,2013-01-19 01:35:00,
2013-01-18 19:40:00,43.2,22.7,29.91,WSW,248,8.7,9.2,44,0.00,CLR,SCT,0.00,0.0,WeatherDisplay:10.37,2013-01-19 01:40:00,
2013-01-18 19:45:00,43.0,23.1,29.91,WSW,248,7.8,10.2,45,0.00,CLR,SCT,0.00,0.0,WeatherDisplay:10.37,2013-01-19 01:45:00,
2013-01-18 19:50:00,43.3,22.9,29.91,WSW,248,9.0,10.9,44,0.00,CLR,SCT,0.00,0.0,WeatherDisplay:10.37,2013-01-19 01:50:00,
2013-01-18 19:55:00,43.0,22.5,29.91,West,270,8.5,12.7,44,0.00,CLR,SCT,0.00,0.0,WeatherDisplay:10.37,2013-01-19 01:55:00,
2013-01-18 20:00:00,43.0,22.5,29.91,WSW,248,9.2,11.5,44,0.00,CLR,SCT,0.00,0.0,WeatherDisplay:10.37,2013-01-19 02:00:00,
2013-01-18 20:06:00,42.8,22.4,29.91,WSW,248,8.7,12.8,44,0.00,CLR,SCT,0.00,0.0,WeatherDisplay:10.37,2013-01-19 02:06:00,
2013-01-18 20:11:00,42.8,22.4,29.91,SSW,202,7.4,10.7,44,0.00,CLR,SCT,0.00,0.0,WeatherDisplay:10.37,2013-01-19 02:11:00,
2013-01-18 20:16:00,42.6,22.2,29.91,WSW,248,6.9,9.7,44,0.00,CLR,SCT,0.00,0.0,WeatherDisplay:10.37,2013-01-19 02:16:00,
2013-01-18 20:21:00,42.3,22.4,29.88,WSW,248,6.9,9.2,45,0.00,CLR,SCT,0.00,0.0,WeatherDisplay:10.37,2013-01-19 02:21:00,
2013-01-18 20:26:00,42.1,22.2,29.88,WSW,248,6.7,9.2,45,0.00,CLR,SCT,0.00,0.0,WeatherDisplay:10.37,2013-01-19 02:26:00,
2013-01-18 20:31:00,41.9,22.6,29.88,WSW,248,5.4,8.1,46,0.00,CLR,SCT,0.00,0.0,WeatherDisplay:10.37,2013-01-19 02:31:00,
2013-01-18 20:36:00,41.7,22.4,29.88,WSW,248,6.2,6.2,46,0.00,CLR,SCT,0.00,0.0,WeatherDisplay:10.37,2013-01-19 02:36:00,
2013-01-18 20:41:00,41.7,22.4,29.88,WSW,248,6.7,9.2,46,0.00,CLR,SCT,0.00,0.0,WeatherDisplay:10.37,2013-01-19 02:41:00,
2013-01-18 20:46:00,41.7,22.4,29.88,SW,225,6.2,12.7,46,0.00,CLR,SCT,0.00,0.0,WeatherDisplay:10.37,2013-01-19 02:46:00,
2013-01-18 20:51:00,41.4,22.6,29.88,WSW,248,6.2,6.9,47,0.00,CLR,SCT,0.00,0.0,WeatherDisplay:10.37,2013-01-19 02:51:00,
2013-01-18 20:57:00,41.7,22.4,29.88,SW,225,7.6,9.2,46,0.00,CLR,SCT,0.00,0.0,WeatherDisplay:10.37,2013-01-19 02:57:00,
2013-01-18 21:02:00,41.7,22.4,29.88,WSW,248,6.9,10.9,46,0.00,CLR,SCT,0.00,0.0,WeatherDisplay:10.37,2013-01-19 03:02:00,
2013-01-18 21:07:00,41.5,22.3,29.88,WSW,248,6.9,8.5,46,0.00,CLR,SCT,0.00,0.0,WeatherDisplay:10.37,2013-01-19 03:07:00,
2013-01-18 21:12:00,41.4,22.6,29.88,WSW,248,6.9,10.4,47,0.00,CLR,SCT,0.00,0.0,WeatherDisplay:10.37,2013-01-19 03:12:00,
2013-01-18 21:17:00,41.0,22.3,29.88,WSW,248,6.2,6.2,47,0.00,CLR,SCT,0.00,0.0,WeatherDisplay:10.37,2013-01-19 03:17:00,
2013-01-18 21:22:00,40.6,22.9,29.88,WSW,248,7.1,8.1,49,0.00,CLR,SCT,0.00,0.0,WeatherDisplay:10.37,2013-01-19 03:22:00,
2013-01-18 21:27:00,40.5,22.8,29.88,WSW,248,5.9,6.9,49,0.00,CLR,SCT,0.00,0.0,WeatherDisplay:10.37,2013-01-19 03:27:00,
2013-01-18 21:32:00,40.5,22.8,29.88,WSW,248,6.9,8.1,49,0.00,CLR,SCT,0.00,0.0,WeatherDisplay:10.37,2013-01-19 03:32:00,
2013-01-18 21:37:00,40.1,22.4,29.88,WSW,248,5.4,7.1,49,0.00,CLR,SCT,0.00,0.0,WeatherDisplay:10.37,2013-01-19 03:37:00,
2013-01-18 21:42:00,39.9,22.8,29.88,WSW,248,5.4,5.8,50,0.00,CLR,SCT,0.00,0.0,WeatherDisplay:10.37,2013-01-19 03:42:00,
2013-01-18 21:47:00,40.3,22.6,29.88,West,270,7.4,9.2,49,0.00,CLR,SCT,0.00,0.0,WeatherDisplay:10.37,2013-01-19 03:47:00,
2013-01-18 21:52:00,39.7,22.6,29.88,WSW,248,5.9,6.0,50,0.00,CLR,SCT,0.00,0.0,WeatherDisplay:10.37,2013-01-19 03:52:00,
2013-01-18 21:57:00,39.6,22.4,29.88,SSW,202,4.7,9.2,50,0.00,CLR,SCT,0.00,0.0,WeatherDisplay:10.37,2013-01-19 03:57:00,
2013-01-18 22:02:00,39.6,22.9,29.88,WSW,248,5.4,8.1,51,0.00,CLR,SCT,0.00,0.0,WeatherDisplay:10.37,2013-01-19 04:02:00,
2013-01-18 22:07:00,39.6,22.9,29.88,WSW,248,6.4,8.1,51,0.00,CLR,SCT,0.00,0.0,WeatherDisplay:10.37,2013-01-19 04:07:00,
2013-01-18 22:12:00,39.4,22.7,29.88,WSW,248,5.6,8.1,51,0.00,CLR,SCT,0.00,0.0,WeatherDisplay:10.37,2013-01-19 04:12:00,
2013-01-18 22:17:00,39.0,22.9,29.88,WSW,248,4.5,8.1,52,0.00,CLR,SCT,0.00,0.0,WeatherDisplay:10.37,2013-01-19 04:17:00,
2013-01-18 22:22:00,39.0,23.3,29.88,West,270,6.9,9.2,53,0.00,CLR,SCT,0.00,0.0,WeatherDisplay:10.37,2013-01-19 04:22:00,
2013-01-18 22:27:00,38.8,23.2,29.88,SSW,202,6.9,8.1,53,0.00,CLR,SCT,0.00,0.0,WeatherDisplay:10.37,2013-01-19 04:27:00,
2013-01-18 22:32:00,38.7,23.0,29.88,WSW,248,5.6,7.1,53,0.00,CLR,SCT,0.00,0.0,WeatherDisplay:10.37,2013-01-19 04:32:00,
2013-01-18 22:37:00,38.7,23.0,29.88,SSW,202,6.2,9.2,53,0.00,CLR,SCT,0.00,0.0,WeatherDisplay:10.37,2013-01-19 04:37:00,
2013-01-18 22:42:00,38.5,22.8,29.88,WSW,248,5.9,7.6,53,0.00,CLR,SCT,0.00,0.0,WeatherDisplay:10.37,2013-01-19 04:42:00,
2013-01-18 22:47:00,38.5,22.8,29.88,WSW,248,6.2,9.2,53,0.00,CLR,SCT,0.00,0.0,WeatherDisplay:10.37,2013-01-19 04:47:00,
2013-01-18 22:53:00,37.9,22.3,29.88,SSW,202,4.0,5.8,53,0.00,CLR,SCT,0.00,0.0,WeatherDisplay:10.37,2013-01-19 04:53:00,
2013-01-18 22:58:00,38.1,22.9,29.88,WSW,248,5.6,5.8,54,0.00,CLR,SCT,0.00,0.0,WeatherDisplay:10.37,2013-01-19 04:58:00,
2013-01-18 23:01:00,38.1,22.9,29.88,WSW,248,6.4,6.9,54,0.00,CLR,SCT,0.00,0.0,WeatherDisplay:10.37,2013-01-19 05:01:00,
2013-01-18 23:02:00,38.1,22.9,29.88,WSW,248,5.4,6.9,54,0.00,CLR,SCT,0.00,0.0,WeatherDisplay:10.37,2013-01-19 05:02:00,
2013-01-18 23:04:00,38.1,22.9,29.88,West,270,6.2,7.4,54,0.00,CLR,SCT,0.00,0.0,WeatherDisplay:10.37,2013-01-19 05:04:00,
2013-01-18 23:09:00,37.9,22.8,29.85,WSW,248,4.9,5.8,54,0.00,CLR,SCT,0.00,0.0,WeatherDisplay:10.37,2013-01-19 05:09:00,
2013-01-18 23:14:00,37.9,22.8,29.85,NNW,338,6.0,8.1,54,0.00,CLR,SCT,0.00,0.0,WeatherDisplay:10.37,2013-01-19 05:14:00,
2013-01-18 23:19:00,37.9,22.8,29.85,WSW,248,6.4,6.9,54,0.00,CLR,SCT,0.00,0.0,WeatherDisplay:10.37,2013-01-19 05:19:00,
2013-01-18 23:24:00,37.9,22.8,29.85,WSW,248,5.6,8.1,54,0.00,CLR,SCT,0.00,0.0,WeatherDisplay:10.37,2013-01-19 05:24:00,
2013-01-18 23:29:00,37.6,22.4,29.85,WSW,248,4.7,8.1,54,0.00,CLR,SCT,0.00,0.0,WeatherDisplay:10.37,2013-01-19 05:29:00,
2013-01-18 23:35:00,37.6,22.4,29.85,WSW,248,5.6,6.9,54,0.00,CLR,SCT,0.00,0.0,WeatherDisplay:10.37,2013-01-19 05:35:00,
2013-01-18 23:40:00,37.4,22.3,29.85,West,270,4.0,6.9,54,0.00,CLR,SCT,0.00,0.0,WeatherDisplay:10.37,2013-01-19 05:40:00,
2013-01-18 23:45:00,37.4,22.3,29.85,WSW,248,3.6,8.1,54,0.00,CLR,SCT,0.00,0.0,WeatherDisplay:10.37,2013-01-19 05:45:00,
2013-01-18 23:50:00,37.4,22.3,29.85,WSW,248,3.6,5.8,54,0.00,CLR,SCT,0.00,0.0,WeatherDisplay:10.37,2013-01-19 05:50:00,
2013-01-18 23:55:00,37.4,22.3,29.85,SSW,202,3.6,6.9,54,0.00,CLR,SCT,0.00,0.0,WeatherDisplay:10.37,2013-01-19 05:55:00,